[[{"header":{"parameterUnit":"m.s-1","parameterCategory":1,"la1":30.2991,"la2":30.254,"lo1":-89.0895,"lo2":-89.0444,"dy":0.0017,"dx":0.0017,"nx":28,"ny":28,"refTime":"2025-07-15T09:00:00:Z","depth":0,"parameterNumber":2,"parameterNumberName":"U-component_of_WINDS"},"data":[0,0,0,0,0,0,0,0,0,0,0,0,0,0,0,0,0,0,0,0,0,0,0,0,0,0,0,0,0,0,0,0,0,0,0,0,0,0,0,0,0,0,0,0,0,0,0,0,0,0,0,0,0,0,0,0,0,0,1.1037,1.1036,0,1.0956,1.0955,1.0954,1.0896,1.0895,1.0895,1.0895,1.0808,1.0807,1.0805,0,0,0,0,0,0,0,0,0,0,0,0,0,1.1138,1.1136,1.1037,1.1036,1.1035,1.0956,1.0955,1.0954,1.0896,1.0895,1.0895,1.0894,1.0809,1.0807,1.0805,0,0,0,0,0,0,0,0,0,0,0,0,0,1.1079,1.1136,1.1037,1.0997,1.0992,1.0957,1.0955,1.0954,1.0896,1.0895,1.0895,1.0894,1.081,1.0807,1.0804,1.0802,0,0,1.0796,1.0795,0,0,0,0,0,0,0,0,1.1083,1.1076,1.1004,1.0999,1.0994,1.0935,1.0959,1.0903,1.0896,1.0932,1.0895,1.0894,1.0851,1.0845,1.0831,1.0797,1.0794,1.0796,1.0794,1.0793,1.0792,0,0,0,0,0,0,0,1.1087,1.1079,1.1005,1.1003,1.0997,1.0981,1.0972,1.0948,1.0897,1.0929,1.0925,1.0916,1.0848,1.0834,1.0829,1.0793,1.0796,1.0793,1.0792,1.079,1.0752,1.0753,0,0,0,0,0,0,1.1098,1.1082,1.1007,1.1002,1.1038,1.098,1.097,1.0955,1.0897,1.0887,1.0917,1.0914,1.0839,1.0832,1.0825,1.0818,1.0793,1.079,1.0789,1.0752,1.0752,1.0753,0,0,0,0,0,0,1.11,1.1091,1.1011,1.1041,1.103,1.0979,1.0963,1.0954,1.0939,1.0888,1.0878,1.0912,1.0838,1.0829,1.0808,1.0814,1.0789,1.0786,1.0751,1.0752,1.0753,1.0804,0,0,0,0,0,0,1.1103,1.1093,1.1092,1.1042,1.1028,1.0996,1.0963,1.0953,1.0935,1.093,1.088,1.0871,1.0837,1.0813,1.0805,1.081,1.0784,1.075,1.0751,1.0752,1.0801,1.0807,1.0811,0,0,0,0,0,1.1107,1.1109,1.1092,1.1083,1.1026,1.0996,1.0988,1.095,1.0936,1.0934,1.0901,1.0873,1.0815,1.0811,1.0802,1.0806,1.0749,1.0751,1.0752,1.0799,1.0806,1.0811,0,0,0,0,0,0,1.1159,1.1101,1.1082,1.1068,1.1038,1.0987,1.0983,1.0958,1.093,1.0927,1.0879,1.0868,1.0852,1.0827,1.0823,1.08,1.0779,1.0779,1.0817,1.0823,1.0828,1.0834,1.0782,0,0,0,0,0,1.1169,1.1151,1.1101,1.1093,1.1079,1.1034,1.1019,1.0992,1.0959,1.0945,1.091,1.0878,1.0852,1.0836,1.081,1.0798,1.0786,1.0796,1.0801,1.0805,1.0805,1.0797,1.0801,1.0758,1.0758,1.0758,0,0,1.119,1.1156,1.1147,1.1103,1.1076,1.1057,1.1023,1.1004,1.099,1.0942,1.092,1.0893,1.0854,1.0837,1.0828,1.0816,1.0815,1.0807,1.0811,1.0808,1.0799,1.0803,1.0807,1.0759,1.0759,1.0759,0,0,1.1217,1.119,1.118,1.1154,1.1115,1.1085,1.1083,1.1036,1.1017,1.0995,1.0958,1.0939,1.0897,1.087,1.0851,1.0869,1.0842,1.0861,1.0886,1.0878,1.0882,1.0884,1.089,1.0893,1.0862,1.0862,1.0862,0,1.1246,1.1217,1.1178,1.1162,1.1143,1.1101,1.109,1.1067,1.1021,1.1008,1.0996,1.0941,1.0911,1.0888,1.0893,1.0879,1.0874,1.0866,1.0885,1.0887,1.0889,1.0894,1.0896,1.0865,1.0864,1.0864,1.0864,0,1.1256,1.1236,1.1233,1.1191,1.1172,1.1159,1.1117,1.1102,1.1077,1.1049,1.1026,1.0989,1.0955,1.0947,1.0922,1.092,1.0914,1.0894,1.0871,1.0896,1.09,1.0902,1.0868,1.0867,1.0867,1.0866,0,0,1.1313,1.125,1.1249,1.123,1.1184,1.1167,1.1152,1.1119,1.1108,1.1077,1.1063,1.1028,1.1009,1.0987,1.0959,1.0952,1.0969,1.0932,1.0931,1.094,1.0964,1.0979,1.0982,1.0951,1.0951,1.0951,1.0967,0,1.1332,1.1304,1.1268,1.1251,1.1232,1.1192,1.1178,1.1148,1.1121,1.1101,1.107,1.1046,1.1023,1.101,1.1002,1.0969,1.0973,1.0967,1.0936,1.0935,1.0947,1.0984,1.1,1.1017,1.0968,1.0969,1.0969,0,1.1351,1.1325,1.1306,1.1262,1.1253,1.1241,1.1209,1.119,1.1155,1.1135,1.1112,1.1082,1.1063,1.1043,1.1016,1.1012,1.0998,1.098,1.0979,1.0974,1.0953,1.098,1.1022,1.1024,1.0971,1.0971,1.0971,0,1.1395,1.1354,1.1337,1.1322,1.127,1.1263,1.1241,1.1205,1.1188,1.1159,1.1147,1.1117,1.1099,1.1076,1.1038,1.1027,1.1014,1.0992,1.0997,1.0998,1.0995,1.0996,1.1035,1.0987,1.0987,1.0987,1.0987,0,1.142,1.141,1.1356,1.1346,1.1334,1.1293,1.1281,1.1255,1.1224,1.1208,1.117,1.1155,1.1107,1.1086,1.1056,1.1037,1.103,1.1013,1.1005,1.1016,1.1018,1.1005,1.1003,1.0988,1.0987,1.0987,1.0987,0,1.1466,1.1429,1.1409,1.1362,1.135,1.1343,1.1302,1.129,1.1262,1.1241,1.1234,1.1189,1.1162,1.1122,1.1083,1.1063,1.1049,1.1037,1.1062,1.1057,1.1065,1.1064,1.1096,1.1098,1.105,1.105,1.1051,0,1.1484,1.1476,1.1429,1.1416,1.1395,1.1374,1.1357,1.1316,1.13,1.1259,1.1252,1.1223,1.1198,1.1157,1.112,1.109,1.1076,1.1089,1.1071,1.1082,1.1075,1.1076,1.1075,1.1093,1.1094,1.1095,1.1095,0,1.152,1.1503,1.148,1.1452,1.1432,1.1407,1.138,1.1371,1.1324,1.1307,1.1281,1.1261,1.1222,1.1193,1.1159,1.1134,1.1107,1.1101,1.1101,1.1112,1.1126,1.1118,1.1073,1.11,1.11,1.1099,1.1099,1.1099,1.1553,1.1544,1.1509,1.1485,1.1461,1.1437,1.1423,1.1394,1.1371,1.1337,1.1314,1.1289,1.1253,1.1204,1.1181,1.116,1.1148,1.1147,1.1147,1.1148,1.1151,1.1131,1.1153,1.1153,1.1153,1.1153,1.1153,0,1.1587,1.1563,1.1541,1.1506,1.1486,1.1464,1.1433,1.1418,1.1396,1.1366,1.1343,1.1312,1.1284,1.1245,1.1214,1.1204,1.1191,1.1198,1.1197,1.1192,1.1164,1.1167,1.1209,1.1209,1.1209,1.1209,1.1209,1.1209,1.1602,1.1586,1.1565,1.1535,1.1511,1.1487,1.1471,1.1448,1.1424,1.1392,1.1369,1.1345,1.1311,1.1277,1.125,1.1239,1.123,1.124,1.1225,1.1199,1.1194,1.1189,1.1192,1.1239,1.1239,1.1255,1.1255,1.1256]},{"header":{"parameterUnit":"m.s-1","parameterCategory":1,"la1":30.2991,"la2":30.254,"lo1":-89.0895,"lo2":-89.0444,"dy":0.0017,"dx":0.0017,"nx":28,"ny":28,"refTime":"2025-07-15T09:00:00:Z","depth":0,"parameterNumber":3,"parameterNumberName":"V-component_of_WINDS"},"data":[0,0,0,0,0,0,0,0,0,0,0,0,0,0,0,0,0,0,0,0,0,0,0,0,0,0,0,0,0,0,0,0,0,0,0,0,0,0,0,0,0,0,0,0,0,0,0,0,0,0,0,0,0,0,0,0,0,0,-3.6225,-3.6226,0,-3.6347,-3.6348,-3.635,-3.6325,-3.6323,-3.6321,-3.6319,-3.644,-3.6445,-3.645,0,0,0,0,0,0,0,0,0,0,0,0,0,-3.5969,-3.5974,-3.6225,-3.6226,-3.6228,-3.6347,-3.6348,-3.635,-3.6326,-3.6323,-3.632,-3.6318,-3.6438,-3.6445,-3.6451,0,0,0,0,0,0,0,0,0,0,0,0,0,-3.6084,-3.5975,-3.6225,-3.623,-3.6232,-3.6346,-3.6348,-3.635,-3.6326,-3.6323,-3.632,-3.6316,-3.6436,-3.6444,-3.6452,-3.6567,0,0,-3.6476,-3.648,0,0,0,0,0,0,0,0,-3.6078,-3.6094,-3.6228,-3.623,-3.6232,-3.6318,-3.6303,-3.6423,-3.6327,-3.629,-3.6319,-3.6315,-3.6402,-3.6412,-3.6442,-3.6573,-3.6578,-3.6477,-3.6482,-3.6485,-3.6487,0,0,0,0,0,0,0,-3.607,-3.6088,-3.6273,-3.623,-3.6232,-3.6226,-3.6239,-3.6325,-3.6363,-3.6293,-3.6292,-3.6307,-3.6402,-3.6435,-3.6445,-3.658,-3.6477,-3.6484,-3.6489,-3.6492,-3.6813,-3.6816,0,0,0,0,0,0,-3.606,-3.6082,-3.6269,-3.6277,-3.6145,-3.6233,-3.6247,-3.6293,-3.6362,-3.6369,-3.6309,-3.6305,-3.6423,-3.6436,-3.6449,-3.659,-3.6485,-3.6492,-3.6497,-3.6809,-3.6813,-3.6817,0,0,0,0,0,0,-3.6055,-3.6077,-3.6264,-3.6179,-3.6202,-3.6241,-3.6293,-3.6298,-3.633,-3.6374,-3.6381,-3.6336,-3.6421,-3.6438,-3.6539,-3.6594,-3.6496,-3.6503,-3.6804,-3.681,-3.6815,-3.6872,0,0,0,0,0,0,-3.6048,-3.6075,-3.612,-3.618,-3.6207,-3.6353,-3.6296,-3.6302,-3.6344,-3.634,-3.6401,-3.6408,-3.6419,-3.6527,-3.6547,-3.6603,-3.6509,-3.68,-3.6807,-3.6814,-3.6865,-3.6879,-3.689,0,0,0,0,0,-3.6039,-3.613,-3.6122,-3.6145,-3.6264,-3.6356,-3.6371,-3.6384,-3.6349,-3.6394,-3.6423,-3.6406,-3.6585,-3.6537,-3.6559,-3.6619,-3.6796,-3.6805,-3.6813,-3.686,-3.6876,-3.689,0,0,0,0,0,0,-3.6074,-3.6138,-3.613,-3.6244,-3.6295,-3.6351,-3.6409,-3.64,-3.6461,-3.6454,-3.6466,-3.648,-3.6583,-3.6611,-3.6557,-3.6735,-3.6685,-3.6699,-3.6713,-3.6729,-3.6742,-3.6733,-3.6516,0,0,0,0,0,-3.6095,-3.6165,-3.6217,-3.6312,-3.6339,-3.6369,-3.641,-3.6415,-3.6468,-3.6489,-3.6525,-3.6576,-3.6643,-3.6688,-3.6752,-3.6869,-3.6882,-3.6921,-3.6933,-3.6943,-3.6955,-3.702,-3.7038,-3.6845,-3.6845,-3.6845,0,0,-3.6139,-3.6183,-3.6226,-3.6321,-3.6361,-3.6433,-3.6387,-3.6465,-3.6519,-3.65,-3.6598,-3.6627,-3.6684,-3.6794,-3.6844,-3.682,-3.7011,-3.6954,-3.6962,-3.6968,-3.7031,-3.7049,-3.7065,-3.6851,-3.685,-3.6849,0,0,-3.6257,-3.6297,-3.6382,-3.6423,-3.6485,-3.6505,-3.6525,-3.6584,-3.6603,-3.6701,-3.6689,-3.6753,-3.6869,-3.6911,-3.6947,-3.7083,-3.707,-3.7103,-3.7169,-3.7232,-3.7247,-3.7261,-3.731,-3.7328,-3.7114,-3.7115,-3.7115,0,-3.6304,-3.6413,-3.6426,-3.6506,-3.6548,-3.6536,-3.6622,-3.6661,-3.674,-3.6769,-3.6742,-3.6889,-3.6926,-3.7047,-3.708,-3.7109,-3.7133,-3.7097,-3.7244,-3.7258,-3.7271,-3.7318,-3.7337,-3.7118,-3.7118,-3.7117,-3.7117,0,-3.6468,-3.6544,-3.6605,-3.6684,-3.6732,-3.6815,-3.684,-3.6888,-3.6889,-3.6912,-3.7013,-3.7058,-3.7133,-3.7161,-3.7163,-3.7282,-3.7266,-3.7241,-3.7192,-3.7293,-3.7338,-3.7356,-3.7124,-3.7122,-3.7121,-3.712,0,0,-3.6611,-3.6697,-3.6719,-3.6756,-3.6824,-3.6882,-3.6964,-3.7038,-3.708,-3.7135,-3.7204,-3.7303,-3.7282,-3.7323,-3.7329,-3.7385,-3.7491,-3.7354,-3.7355,-3.7379,-3.7627,-3.7646,-3.7666,-3.7483,-3.7486,-3.7489,-3.7622,0,-3.6736,-3.6882,-3.6897,-3.7027,-3.7098,-3.7088,-3.7159,-3.7209,-3.7233,-3.7295,-3.7321,-3.7392,-3.7357,-3.7383,-3.7437,-3.7466,-3.7541,-3.7457,-3.7547,-3.755,-3.7534,-3.7689,-3.7709,-3.7833,-3.764,-3.7643,-3.7645,0,-3.6901,-3.6963,-3.7101,-3.7161,-3.7191,-3.7255,-3.7325,-3.7386,-3.7441,-3.7455,-3.7502,-3.7501,-3.7585,-3.7533,-3.7649,-3.7592,-3.7629,-3.7649,-3.7654,-3.7664,-3.7604,-3.7704,-3.7873,-3.7892,-3.7672,-3.767,-3.7668,0,-3.6993,-3.7111,-3.7209,-3.724,-3.7312,-3.7358,-3.7389,-3.7442,-3.7486,-3.7547,-3.7576,-3.7645,-3.7683,-3.7736,-3.7754,-3.7714,-3.787,-3.7818,-3.7884,-3.7884,-3.7918,-3.7916,-3.8096,-3.7941,-3.794,-3.794,-3.794,0,-3.7132,-3.7217,-3.7252,-3.7312,-3.7408,-3.7423,-3.7517,-3.7546,-3.7593,-3.7659,-3.7654,-3.7716,-3.7735,-3.7801,-3.7815,-3.791,-3.7926,-3.794,-3.7943,-3.7941,-3.794,-3.7967,-3.7959,-3.7945,-3.7944,-3.7943,-3.7942,0,-3.7251,-3.7278,-3.7384,-3.7444,-3.7461,-3.7529,-3.758,-3.7638,-3.7661,-3.7745,-3.7765,-3.7802,-3.7878,-3.7901,-3.7992,-3.8002,-3.8114,-3.8108,-3.8096,-3.8096,-3.8161,-3.8156,-3.8366,-3.8395,-3.8219,-3.8221,-3.8222,0,-3.7338,-3.7403,-3.7471,-3.7515,-3.755,-3.7621,-3.7667,-3.7685,-3.7732,-3.7802,-3.7852,-3.7928,-3.799,-3.8112,-3.8147,-3.8217,-3.8214,-3.8283,-3.8224,-3.8221,-3.8216,-3.8213,-3.822,-3.8294,-3.8296,-3.8297,-3.8298,0,-3.749,-3.7501,-3.7567,-3.764,-3.7695,-3.7752,-3.7807,-3.7843,-3.7869,-3.7923,-3.8002,-3.805,-3.8145,-3.8221,-3.8292,-3.8324,-3.8316,-3.8317,-3.8336,-3.8335,-3.8326,-3.8333,-3.8127,-3.8312,-3.831,-3.8309,-3.8309,-3.8308,-3.7597,-3.7655,-3.7713,-3.7787,-3.7831,-3.7883,-3.7942,-3.7973,-3.804,-3.8119,-3.8125,-3.8211,-3.8266,-3.8362,-3.8398,-3.8465,-3.8445,-3.8472,-3.8479,-3.8486,-3.8492,-3.8315,-3.8478,-3.8477,-3.8477,-3.8477,-3.8476,0,-3.775,-3.7787,-3.7855,-3.7934,-3.7993,-3.7981,-3.8042,-3.8092,-3.8168,-3.822,-3.8282,-3.8374,-3.8448,-3.8488,-3.8562,-3.8608,-3.8606,-3.8627,-3.8624,-3.8632,-3.8505,-3.8482,-3.8627,-3.8627,-3.8627,-3.8627,-3.8627,-3.8627,-3.7837,-3.7936,-3.7953,-3.8074,-3.811,-3.8195,-3.8231,-3.8279,-3.8322,-3.8425,-3.8487,-3.8513,-3.8561,-3.8638,-3.8706,-3.8716,-3.8743,-3.8767,-3.8774,-3.8656,-3.864,-3.8626,-3.8604,-3.8772,-3.8772,-3.8896,-3.8897,-3.8898]}]]